When you browse on this site, cookies collect data to enhance your experience and personalize the content and advertising you see.
Visit our Privacy Policy to learn more. By continuing to use the site, you agree to this use of cookies and data.
  • In Hungary
  • List of Countries
  • For 7 days
  • Water Temperature
  • Satellite Maps
  • Weather Map
  • News
  • Weather Widgets
  • user-avatar
    Login

    Hourly Weather Zwolle

    Today, 18 November, Sunday

    Time Temperature Precipitation Wind Pressure Humidity
    00:00 -1°C° 0 mm 4 mps 774 mmHg 78%
    01:00 -1°C° 0 mm 4 mps 774 mmHg 77%
    02:00 -1°C° 0 mm 4 mps 774 mmHg 76%
    03:00 -1°C° 0 mm 4 mps 774 mmHg 74%
    04:00 -1°C° 0 mm 4 mps 774 mmHg 72%
    05:00 -2°C° 0 mm 4 mps 774 mmHg 71%
    06:00 -2°C° 0 mm 4 mps 773 mmHg 71%
    07:00 -2°C° 0 mm 4 mps 773 mmHg 66%
    08:00 -1°C° 0 mm 5 mps 773 mmHg 60%
    09:00 0°C° 0 mm 5 mps 773 mmHg 55%
    10:00 +1°C° 0 mm 5 mps 773 mmHg 51%
    11:00 +3°C° 0 mm 5 mps 773 mmHg 47%
    12:00 +5°C° 0 mm 5 mps 773 mmHg 43%
    13:00 +5°C° 0 mm 5 mps 772 mmHg 45%
    14:00 +3°C° 0 mm 5 mps 772 mmHg 48%
    15:00 +4°C° 0 mm 4 mps 772 mmHg 50%
    16:00 +3°C° 0 mm 4 mps 771 mmHg 58%
    17:00 +1°C° 0 mm 5 mps 771 mmHg 66%
    18:00 +1°C° 0 mm 5 mps 771 mmHg 74%
    19:00 +1°C° 0 mm 5 mps 771 mmHg 77%
    20:00 +2°C° 0 mm 5 mps 771 mmHg 80%
    21:00 +2°C° 0 mm 5 mps 771 mmHg 83%
    22:00 +2°C° 0 mm 5 mps 771 mmHg 84%
    23:00 +2°C° 0 mm 5 mps 771 mmHg 84%

    Tomorrow, 19 November, Monday

    Time Temperature Precipitation Wind Pressure Humidity
    00:00 +2°C° 0 mm 5 mps 770 mmHg 85%
    01:00 +3°C° 0 mm 5 mps 770 mmHg 84%
    02:00 +3°C° 0 mm 6 mps 770 mmHg 82%
    03:00 +3°C° 0 mm 6 mps 769 mmHg 81%
    04:00 +3°C° 0 mm 6 mps 769 mmHg 81%
    05:00 +3°C° 0 mm 6 mps 768 mmHg 81%
    06:00 +3°C° 0 mm 6 mps 768 mmHg 80%
    07:00 +4°C° 0 mm 7 mps 768 mmHg 79%
    08:00 +4°C° 0 mm 7 mps 768 mmHg 77%
    09:00 +4°C° 0 mm 7 mps 768 mmHg 75%
    10:00 +5°C° 0 mm 8 mps 767 mmHg 71%
    11:00 +5°C° 0 mm 8 mps 767 mmHg 68%
    12:00 +6°C° 0 mm 8 mps 766 mmHg 64%
    13:00 +5°C° 0.1 mm 8 mps 766 mmHg 65%
    14:00 +5°C° 0.1 mm 7 mps 766 mmHg 66%
    15:00 +4°C° 0.1 mm 7 mps 765 mmHg 68%
    16:00 +4°C° 0 mm 6 mps 765 mmHg 69%
    17:00 +3°C° 0 mm 6 mps 765 mmHg 70%
    18:00 +2°C° 0 mm 6 mps 765 mmHg 71%
    19:00 +2°C° 0 mm 6 mps 764 mmHg 72%
    20:00 +2°C° 0 mm 7 mps 764 mmHg 72%
    21:00 0°C° 0 mm 7 mps 764 mmHg 73%
    22:00 0°C° 0 mm 7 mps 764 mmHg 74%
    23:00 0°C° 0 mm 7 mps 763 mmHg 75%

    Day after tomorrow, 20 November, Tuesday

    Time Temperature Precipitation Wind Pressure Humidity
    00:00 -1°C° 0 mm 7 mps 763 mmHg 76%
    01:00 0°C° 0 mm 7 mps 763 mmHg 75%
    02:00 0°C° 0 mm 8 mps 762 mmHg 73%
    03:00 0°C° 0 mm 8 mps 762 mmHg 71%
    04:00 0°C° 0 mm 8 mps 762 mmHg 72%
    05:00 0°C° 0 mm 8 mps 761 mmHg 72%
    06:00 -1°C° 0 mm 8 mps 761 mmHg 72%
    07:00 0°C° 0 mm 9 mps 761 mmHg 70%
    08:00 0°C° 0 mm 9 mps 760 mmHg 68%
    09:00 0°C° 0 mm 9 mps 760 mmHg 67%
    10:00 0°C° 0 mm 9 mps 760 mmHg 66%
    11:00 +1°C° 0 mm 9 mps 759 mmHg 65%
    12:00 +1°C° 0 mm 9 mps 759 mmHg 64%
    13:00 +1°C° 0.1 mm 9 mps 759 mmHg 67%
    14:00 0°C° 0.1 mm 8 mps 758 mmHg 70%
    15:00 0°C° 0.1 mm 8 mps 758 mmHg 73%
    16:00 -1°C° 0.6 mm 8 mps 758 mmHg 76%
    17:00 -1°C° 0.6 mm 7 mps 758 mmHg 79%
    18:00 -1°C° 0.6 mm 7 mps 758 mmHg 82%
    19:00 -1°C° 0.5 mm 7 mps 758 mmHg 84%
    20:00 -1°C° 0.5 mm 7 mps 758 mmHg 85%
    21:00 -2°C° 0.5 mm 6 mps 758 mmHg 87%
    22:00 -2°C° 0.2 mm 6 mps 758 mmHg 88%
    23:00 -2°C° 0.2 mm 6 mps 758 mmHg 90%

    21 November, Wednesday

    Time Temperature Precipitation Wind Pressure Humidity
    00:00 -2°C° 0.2 mm 6 mps 758 mmHg 91%
    01:00 -2°C° 0 mm 6 mps 758 mmHg 92%
    02:00 -2°C° 0 mm 6 mps 758 mmHg 92%
    03:00 -2°C° 0 mm 5 mps 758 mmHg 92%
    04:00 -2°C° 0 mm 5 mps 758 mmHg 93%
    05:00 -2°C° 0 mm 5 mps 758 mmHg 93%
    06:00 -2°C° 0 mm 5 mps 759 mmHg 93%
    07:00 -2°C° 0 mm 6 mps 759 mmHg 93%
    08:00 -2°C° 0 mm 6 mps 759 mmHg 92%
    09:00 -2°C° 0 mm 6 mps 760 mmHg 91%
    10:00 -1°C° 0 mm 6 mps 760 mmHg 91%
    11:00 -1°C° 0 mm 6 mps 760 mmHg 90%
    12:00 +1°C° 0 mm 6 mps 761 mmHg 89%
    13:00 +1°C° 0 mm 6 mps 761 mmHg 90%
    14:00 +1°C° 0 mm 6 mps 761 mmHg 90%
    15:00 +1°C° 0 mm 6 mps 761 mmHg 90%
    16:00 +1°C° 0 mm 6 mps 761 mmHg 91%
    17:00 +1°C° 0 mm 6 mps 762 mmHg 91%
    18:00 -1°C° 0 mm 6 mps 762 mmHg 91%
    19:00 +1°C° 0 mm 6 mps 762 mmHg 91%
    20:00 +1°C° 0 mm 6 mps 763 mmHg 90%
    21:00 +1°C° 0 mm 5 mps 763 mmHg 90%
    22:00 +1°C° 0 mm 5 mps 763 mmHg 91%
    23:00 +1°C° 0 mm 5 mps 763 mmHg 91%

    22 November, Thursday

    Time Temperature Precipitation Wind Pressure Humidity
    00:00 +1°C° 0 mm 5 mps 763 mmHg 91%
    01:00 +1°C° 0 mm 5 mps 763 mmHg 91%
    02:00 +1°C° 0 mm 5 mps 763 mmHg 91%
    03:00 +1°C° 0 mm 5 mps 763 mmHg 91%
    04:00 +1°C° 0 mm 5 mps 763 mmHg 91%
    05:00 +1°C° 0 mm 5 mps 763 mmHg 91%
    06:00 +1°C° 0 mm 5 mps 763 mmHg 91%
    07:00 +1°C° 0 mm 5 mps 763 mmHg 91%
    08:00 +2°C° 0 mm 5 mps 764 mmHg 90%
    09:00 +2°C° 0 mm 5 mps 764 mmHg 89%
    10:00 +3°C° 0 mm 4 mps 764 mmHg 88%
    11:00 +4°C° 0 mm 4 mps 764 mmHg 86%
    12:00 +4°C° 0 mm 4 mps 764 mmHg 85%
    13:00 +4°C° 0 mm 4 mps 764 mmHg 86%
    14:00 +4°C° 0 mm 4 mps 765 mmHg 86%
    15:00 +4°C° 0 mm 3 mps 765 mmHg 87%
    16:00 +3°C° 0 mm 3 mps 765 mmHg 89%
    17:00 +3°C° 0 mm 3 mps 765 mmHg 91%
    18:00 +2°C° 0 mm 3 mps 766 mmHg 92%
    19:00 +2°C° 0 mm 3 mps 766 mmHg 93%
    20:00 +2°C° 0 mm 3 mps 766 mmHg 94%
    21:00 +2°C° 0 mm 3 mps 766 mmHg 94%
    22:00 +1°C° 0 mm 3 mps 767 mmHg 94%
    23:00 +2°C° 0 mm 2 mps 767 mmHg 95%

    23 November, Friday

    Time Temperature Precipitation Wind Pressure Humidity
    00:00 +2°C° 0 mm 2 mps 767 mmHg 95%
    01:00 +2°C° 0 mm 2 mps 767 mmHg 95%
    02:00 +1°C° 0 mm 2 mps 767 mmHg 95%
    03:00 +1°C° 0 mm 2 mps 767 mmHg 95%
    04:00 +1°C° 0 mm 2 mps 767 mmHg 95%
    05:00 +1°C° 0 mm 2 mps 767 mmHg 95%
    06:00 +1°C° 0 mm 2 mps 767 mmHg 95%
    07:00 +1°C° 0 mm 2 mps 767 mmHg 93%
    08:00 +2°C° 0 mm 2 mps 767 mmHg 91%
    09:00 +3°C° 0 mm 2 mps 768 mmHg 90%
    10:00 +4°C° 0 mm 2 mps 767 mmHg 86%
    11:00 +5°C° 0 mm 2 mps 767 mmHg 83%
    12:00 +6°C° 0 mm 2 mps 767 mmHg 79%
    13:00 +5°C° 0 mm 2 mps 767 mmHg 82%
    14:00 +5°C° 0 mm 2 mps 767 mmHg 86%
    15:00 +4°C° 0 mm 2 mps 767 mmHg 89%
    16:00 +4°C° 0 mm 2 mps 767 mmHg 90%
    17:00 +3°C° 0 mm 2 mps 767 mmHg 91%
    18:00 +2°C° 0 mm 2 mps 767 mmHg 93%
    19:00 +2°C° 0 mm 2 mps 766 mmHg 93%
    20:00 +2°C° 0 mm 2 mps 766 mmHg 93%
    21:00 +2°C° 0 mm 2 mps 766 mmHg 93%
    22:00 +2°C° 0 mm 2 mps 766 mmHg 93%
    23:00 +1°C° 0 mm 2 mps 766 mmHg 93%
    Show more